FW0672 Weather Reports


Display with metric or nautical units.
time (UTC)temp
F
wind
direction
speed
MPH
gust
MPH
rain 1hr
in
rain 24hr
in
rain mn
in
humidity
%
barometer
mb
20260507195022 73 335 5.0 8.0 0.00 0.00 0.00 40 1012.1
20260507194018 73 316 6.0 11.0 0.00 0.00 0.00 42 1012.3
20260507193032 71 262 5.0 8.0 0.00 0.00 0.00 43 1012.4
20260507192115 71 291 6.0 9.0 0.00 0.00 0.00 43 1012.5
20260507191016 69 339 6.0 10.0 0.00 0.00 0.00 44 1012.7
20260507190017 71 315 4.0 5.0 0.00 0.00 0.00 42 1012.9
20260507185019 71 320 4.0 6.0 0.00 0.00 0.00 44 1012.9
20260507184020 71 312 8.0 12.0 0.00 0.00 0.00 43 1012.9
20260507183021 71 351 5.0 9.0 0.00 0.00 0.00 44 1012.9
20260507182022 71 259 6.0 9.0 0.00 0.00 0.00 43 1013.2
20260507181023 71 271 6.0 12.0 0.00 0.00 0.00 45 1013.2
20260507180024 70 347 4.0 7.0 0.00 0.00 0.00 47 1013.6
20260507175026 69 281 7.0 11.0 0.00 0.00 0.00 45 1013.7
20260507174022 70 332 6.0 15.0 0.00 0.00 0.00 45 1014.0
20260507173017 70 310 6.0 9.0 0.00 0.00 0.00 47 1014.2
20260507172030 69 322 7.0 10.0 0.00 0.00 0.00 46 1014.3
20260507171031 67 279 4.0 7.0 0.00 0.00 0.00 46 1014.6
20260507170032 66 279 8.0 17.0 0.00 0.00 0.00 48 1014.9
20260507165116 66 282 7.0 9.0 0.00 0.00 0.00 46 1015.0
20260507164017 67 296 7.0 10.0 0.00 0.00 0.00 46 1015.1
20260507163018 66 320 6.0 11.0 0.00 0.00 0.00 48 1015.1
20260507162019 65 323 7.0 12.0 0.00 0.00 0.00 49 1015.3
20260507161020 66 283 5.0 10.0 0.00 0.00 0.00 48 1015.5
20260507160021 66 277 7.0 12.0 0.00 0.00 0.00 48 1015.6
20260507155023 65 342 6.0 9.0 0.00 0.00 0.00 50 1015.7
20260507154024 64 26 5.0 8.0 0.00 0.00 0.00 51 1015.8
20260507153019 63 319 4.0 10.0 0.00 0.00 0.00 51 1015.8
20260507152015 65 321 6.0 9.0 0.00 0.00 0.00 51 1016.0
20260507151028 63 285 4.0 8.0 0.00 0.00 0.00 52 1016.1
20260507150029 62 346 7.0 10.0 0.00 0.00 0.00 53 1016.4
20260507145111 60 360 6.0 8.0 0.00 0.00 0.00 55 1016.6
20260507144032 59 332 7.0 9.0 0.00 0.00 0.00 55 1016.7
20260507143015 60 304 6.0 10.0 0.00 0.00 0.00 55 1016.9
20260507142017 60 298 3.0 7.0 0.00 0.01 0.00 56 1016.9
20260507141018 60 294 6.0 9.0 0.00 0.01 0.00 55 1017.3
20260507140019 61 345 5.0 7.0 0.00 0.01 0.00 54 1017.4
20260507135020 58 360 4.0 5.0 0.00 0.02 0.00 58 1017.5
20260507134021 57 322 5.0 6.0 0.00 0.02 0.00 58 1017.6
20260507133123 56 325 4.0 5.0 0.00 0.02 0.00 59 1017.6
20260507132017 56 325 4.0 6.0 0.00 0.02 0.00 59 1017.6
20260507131125 56 307 4.0 6.0 0.00 0.02 0.00 61 1017.4
20260507130026 55 324 5.0 9.0 0.00 0.02 0.00 61 1017.5
20260507125028 55 327 5.0 7.0 0.00 0.04 0.00 62 1017.5
20260507123030 54 317 5.0 9.0 0.00 0.06 0.00 63 1017.5
20260507122032 54 305 5.0 7.0 0.00 0.06 0.00 64 1017.4
20260507121015 53 325 5.0 8.0 0.00 0.07 0.00 63 1017.3
20260507120016 53 343 5.0 7.0 0.00 0.07 0.00 63 1017.3
20260507115018 53 333 6.0 7.0 0.00 0.08 0.00 64 1017.3
20260507114019 53 317 5.0 6.0 0.00 0.10 0.00 64 1017.2
20260507113020 53 320 5.0 7.0 0.00 0.12 0.00 65 1017.0
20260507112021 53 333 5.0 8.0 0.00 0.12 0.00 65 1016.9
20260507111016 53 322 5.0 9.0 0.00 0.13 0.00 66 1017.1
20260507110023 53 309 4.0 5.0 0.00 0.13 0.00 67 1017.0
20260507105025 53 317 3.0 3.0 0.00 0.13 0.00 68 1016.8
20260507104026 53 300 3.0 4.0 0.00 0.13 0.00 69 1016.7
20260507103027 53 298 3.0 4.0 0.00 0.13 0.00 71 1016.5
20260507102028 53 344 3.0 4.0 0.00 0.13 0.00 71 1016.4
20260507101029 53 285 3.0 5.0 0.00 0.13 0.00 71 1016.3
20260507100031 53 317 3.0 5.0 0.00 0.13 0.00 72 1016.2
20260507095033 54 319 3.0 4.0 0.00 0.13 0.00 73 1016.2
20260507094016 54 345 1.0 2.0 0.00 0.13 0.00 73 1016.1
20260507093017 54 326 4.0 7.0 0.00 0.13 0.00 73 1016.0
20260507092018 54 337 5.0 9.0 0.00 0.13 0.00 74 1016.1
20260507091019 55 315 4.0 6.0 0.00 0.13 0.00 74 1016.0
20260507090115 54 290 5.0 7.0 0.00 0.13 0.00 77 1016.1
20260507085122 54 305 5.0 6.0 0.00 0.13 0.00 81 1016.0
20260507084023 55 299 4.0 6.0 0.00 0.13 0.00 82 1016.0
20260507083025 55 345 5.0 6.0 0.00 0.13 0.00 82 1015.9
20260507082127 56 337 3.0 5.0 0.00 0.13 0.00 81 1016.0
20260507081027 56 323 3.0 5.0 0.00 0.13 0.00 82 1015.9
20260507080029 55 281 3.0 5.0 0.00 0.13 0.00 82 1015.5
20260507075029 55 284 3.0 4.0 0.00 0.13 0.00 82 1015.4
20260507074031 55 313 5.0 7.0 0.00 0.13 0.00 82 1015.4
20260507073032 55 285 4.0 5.0 0.00 0.13 0.00 83 1015.5
20260507072015 55 289 4.0 5.0 0.00 0.13 0.00 83 1015.3
20260507071016 55 276 4.0 7.0 0.00 0.13 0.00 83 1015.4
20260507070017 55 298 3.0 5.0 0.00 0.13 0.00 84 1015.5
20260507065019 55 305 2.0 4.0 0.00 0.13 0.00 84 1015.7
20260507064020 55 316 4.0 5.0 0.00 0.13 0.00 84 1015.8
20260507063021 55 334 3.0 4.0 0.00 0.13 0.00 84 1015.9
20260507062022 55 327 4.0 7.0 0.00 0.13 0.00 84 1016.1
20260507061023 55 267 5.0 6.0 0.00 0.13 0.00 83 1016.3
20260507060124 56 279 4.0 6.0 0.00 0.13 0.00 83 1016.1
20260507054026 56 302 4.0 6.0 0.00 0.13 0.00 82 1016.2
20260507053027 56 284 4.0 5.0 0.00 0.13 0.00 82 1015.9
20260507052109 56 293 4.0 6.0 0.00 0.13 0.00 82 1015.7
20260507051124 57 327 4.0 5.0 0.00 0.13 0.00 80 1015.7
20260507050018 57 309 5.0 6.0 0.00 0.13 0.00 80 1015.7
20260507045032 57 312 5.0 7.0 0.00 0.13 0.00 81 1015.8
20260507044015 57 278 5.0 9.0 0.00 0.13 0.00 83 1015.6
20260507043017 57 292 5.0 8.0 0.00 0.13 0.00 83 1015.4
20260507042018 57 298 6.0 9.0 0.00 0.13 0.00 82 1015.4
20260507041120 57 303 7.0 8.0 0.00 0.13 0.00 84 1015.8
20260507040021 58 291 7.0 8.0 0.00 0.13 0.00 88 1015.7
20260507035022 58 283 4.0 6.0 0.00 0.13 0.13 87 1015.5
20260507034024 58 297 5.0 7.0 0.00 0.13 0.13 87 1015.4
20260507033126 58 294 7.0 13.0 0.00 0.13 0.13 88 1015.5
20260507032027 58 317 7.0 11.0 0.00 0.13 0.13 88 1015.6
20260507031028 58 318 5.0 7.0 0.00 0.13 0.13 89 1015.2
20260507030123 59 307 4.0 7.0 0.00 0.13 0.13 88 1015.5
20260507025019 59 286 5.0 6.0 0.00 0.13 0.13 85 1015.5
20260507024153 60 289 6.0 9.0 0.00 0.13 0.13 84 1015.4
20260507022016 60 314 6.0 8.0 0.00 0.13 0.13 84 1015.2
20260507021018 60 312 3.0 6.0 0.00 0.13 0.13 84 1014.9
20260507020020 60 295 5.0 7.0 0.00 0.13 0.13 84 1014.8
20260507015021 61 307 6.0 10.0 0.00 0.13 0.13 83 1014.8
20260507014022 61 271 4.0 5.0 0.00 0.13 0.13 82 1014.9
20260507013023 61 281 7.0 11.0 0.00 0.13 0.13 82 1014.7
20260507012019 62 294 6.0 8.0 0.00 0.13 0.13 82 1014.4
20260507010021 63 338 6.0 11.0 0.00 0.13 0.13 82 1014.4
20260507005023 63 308 6.0 9.0 0.00 0.13 0.13 82 1014.6
20260507003126 64 280 4.0 7.0 0.00 0.13 0.13 82 1014.3
20260507002027 64 248 7.0 9.0 0.00 0.13 0.13 82 1014.2
20260507001028 65 290 5.0 8.0 0.00 0.13 0.13 84 1014.3
20260507000029 65 287 4.0 7.0 0.00 0.13 0.13 85 1013.9
20260506235111 65 284 5.0 7.0 0.00 0.13 0.13 85 1013.8
20260506234032 65 313 6.0 8.0 0.00 0.13 0.13 85 1013.7
20260506233015 66 307 3.0 6.0 0.00 0.13 0.13 84 1013.6
20260506232117 66 262 5.0 7.0 0.00 0.13 0.13 84 1012.9
20260506231018 66 308 5.0 8.0 0.00 0.13 0.13 84 1013.0
20260506225020 68 290 6.0 9.0 0.00 0.13 0.13 82 1012.8
20260506224022 69 279 8.0 13.0 0.00 0.13 0.13 80 1012.7
20260506223017 69 255 7.0 11.0 0.00 0.13 0.13 83 1012.7
20260506221025 69 303 4.0 6.0 0.00 0.13 0.13 86 1012.5
20260506220026 69 295 7.0 10.0 0.00 0.13 0.13 86 1012.2
20260506215028 73 335 6.0 9.0 0.00 0.13 0.13 83 1012.0
20260506214029 72 349 3.0 5.0 0.00 0.13 0.13 85 1011.9
20260506213030 72 65 3.0 4.0 0.00 0.13 0.13 85 1012.0
20260506212032 71 46 4.0 5.0 0.00 0.13 0.13 85 1012.0
20260506211014 71 37 3.0 4.0 0.00 0.13 0.13 85 1011.6
20260506210015 71 42 3.0 5.0 0.00 0.13 0.13 86 1011.5
20260506205017 71 68 3.0 4.0 0.00 0.13 0.13 87 1011.4
20260506204018 70 34 4.0 5.0 0.00 0.13 0.13 88 1011.4
20260506203020 69 67 5.0 6.0 0.00 0.13 0.13 90 1011.4
20260506202115 70 59 6.0 7.0 0.00 0.13 0.13 88 1011.4
20260506201021 71 41 4.0 5.0 0.00 0.13 0.13 84 1011.4
20260506200023 71 18 2.0 4.0 0.00 0.13 0.13 84 1011.3